CW8844 Weather Reports


time (UTC)temp
C
wind
direction
speed
KPH
gust
KPH
rain 1hr
cm
rain 24hr
cm
rain mn
cm
humidity
%
barometer
mb
20260508171627 17 277 3.2 8.0 0.00 0.00 0.00 38 1016.7
20260508170619 17 287 1.6 12.9 0.00 0.00 0.00 41 1016.8
20260508165617 16 254 0.0 0.0 0.00 0.00 0.00 45 1016.8
20260508164628 16 254 1.6 4.8 0.00 0.00 0.00 44 1016.8
20260508163615 15 101 0.0 0.0 0.00 0.00 0.00 47 1016.8
20260508162627 15 99 0.0 0.0 0.00 0.00 0.00 48 1016.8
20260508161616 14 99 0.0 1.6 0.00 0.00 0.00 49 1016.8
20260508160624 13 153 0.0 0.0 0.00 0.00 0.00 50 1016.9
20260508155623 12 251 0.0 0.0 0.00 0.00 0.00 50 1016.9
20260508154633 12 259 0.0 1.6 0.00 0.00 0.00 52 1017.0
20260508153628 12 215 3.2 4.8 0.00 0.00 0.00 54 1017.0
20260508152618 11 215 1.6 4.8 0.00 0.00 0.00 57 1017.1
20260508151628 11 216 0.0 6.4 0.00 0.00 0.00 57 1017.1
20260508150618 11 205 1.6 6.4 0.00 0.00 0.00 58 1017.1
20260508145617 10 234 0.0 0.0 0.00 0.00 0.00 60 1017.2
20260508144623 10 234 0.0 0.0 0.00 0.00 0.00 61 1017.2
20260508143650 10 234 1.6 6.4 0.00 0.00 0.00 61 1017.1
20260508142617 9 80 0.0 0.0 0.00 0.00 0.00 65 1017.0
20260508141629 8 80 0.0 6.4 0.00 0.00 0.00 66 1017.1
20260508140654 8 65 1.6 6.4 0.00 0.00 0.00 67 1017.1
20260508135615 7 63 1.6 4.8 0.00 0.00 0.00 66 1016.9
20260508134646 7 132 1.6 9.7 0.00 0.00 0.00 70 1017.0
20260508133616 6 97 0.0 3.2 0.00 0.00 0.00 70 1017.0
20260508132621 6 87 4.8 11.3 0.00 0.00 0.00 71 1016.9
20260508131629 5 86 6.4 12.9 0.00 0.00 0.00 72 1016.9
20260508130617 5 80 3.2 11.3 0.00 0.00 0.00 72 1016.8
20260508125621 5 80 4.8 11.3 0.00 0.00 0.00 73 1016.6
20260508124630 5 112 6.4 9.7 0.00 0.00 0.00 76 1016.4
20260508123619 5 72 0.0 8.0 0.00 0.00 0.00 74 1016.6
20260508122629 5 71 3.2 8.0 0.00 0.00 0.00 72 1016.2
20260508121624 5 86 3.2 9.7 0.00 0.00 0.00 72 1016.1
20260508120632 5 106 3.2 11.3 0.00 0.00 0.00 73 1016.1
20260508115632 5 105 3.2 9.7 0.00 0.00 0.00 72 1016.1
20260508114621 5 93 6.4 12.9 0.00 0.00 0.00 71 1016.0
20260508113630 6 72 6.4 12.9 0.00 0.00 0.00 70 1015.9
20260508112637 6 82 8.0 12.9 0.00 0.00 0.00 69 1015.9
20260508111624 6 150 0.0 17.7 0.00 0.00 0.00 68 1015.8
20260508110631 6 89 11.3 19.3 0.00 0.00 0.00 68 1015.5
20260508105651 6 89 8.0 16.1 0.00 0.00 0.00 68 1015.6
20260508104625 6 89 8.0 16.1 0.00 0.00 0.00 68 1015.5
20260508103615 6 56 11.3 16.1 0.00 0.00 0.00 67 1015.4
20260508102625 6 84 9.7 16.1 0.00 0.00 0.00 68 1015.4
20260508101615 6 86 6.4 12.9 0.00 0.00 0.00 67 1015.2
20260508100642 6 59 4.8 12.9 0.00 0.00 0.00 68 1015.2
20260508095618 6 86 9.7 24.1 0.00 0.00 0.00 68 1015.1
20260508094645 6 74 14.5 20.9 0.00 0.00 0.00 68 1015.2
20260508093633 6 68 11.3 17.7 0.00 0.00 0.00 68 1015.2
20260508092623 7 74 11.3 17.7 0.00 0.00 0.00 68 1015.1
20260508091632 7 98 6.4 14.5 0.00 0.00 0.00 67 1015.2
20260508090620 7 72 11.3 19.3 0.00 0.00 0.00 66 1015.2
20260508085622 7 85 8.0 16.1 0.00 0.00 0.00 66 1015.2
20260508084652 7 95 9.7 19.3 0.00 0.00 0.00 66 1015.3
20260508083618 7 81 9.7 14.5 0.00 0.00 0.00 65 1015.4
20260508082647 7 173 4.8 16.1 0.00 0.00 0.00 65 1015.4
20260508081616 8 101 8.0 17.7 0.00 0.00 0.00 64 1015.2
20260508080644 8 72 9.7 16.1 0.00 0.00 0.00 64 1015.1
20260508075626 8 112 12.9 16.1 0.00 0.00 0.00 62 1015.1
20260508074654 8 101 12.9 20.9 0.00 0.00 0.00 61 1015.1
20260508073622 8 79 9.7 14.5 0.00 0.00 0.00 62 1015.1
20260508072629 8 115 11.3 16.1 0.00 0.00 0.00 62 1015.1
20260508071623 9 113 9.7 20.9 0.00 0.00 0.00 61 1015.0
20260508070630 10 87 8.0 20.9 0.00 0.00 0.00 59 1015.0
20260508065629 10 121 8.0 20.9 0.00 0.00 0.00 58 1015.0
20260508064614 10 70 12.9 25.7 0.00 0.00 0.00 57 1014.7
20260508063626 10 86 12.9 22.5 0.00 0.00 0.00 56 1014.7
20260508062633 10 85 11.3 19.3 0.00 0.00 0.00 57 1014.7
20260508061622 10 90 9.7 17.7 0.00 0.00 0.00 58 1014.6
20260508060629 10 76 9.7 16.1 0.00 0.00 0.00 57 1014.6
20260508055632 11 66 8.0 14.5 0.00 0.00 0.00 56 1014.5
20260508054625 11 124 8.0 12.9 0.00 0.00 0.00 55 1014.5
20260508053614 11 112 9.7 14.5 0.00 0.00 0.00 55 1014.5
20260508052622 11 131 9.7 14.5 0.00 0.00 0.00 54 1014.5
20260508051630 11 65 8.0 12.9 0.00 0.00 0.00 54 1014.4
20260508050622 12 102 6.4 9.7 0.00 0.00 0.00 54 1014.4
20260508045622 12 72 6.4 11.3 0.00 0.00 0.00 53 1014.4
20260508044630 12 74 6.4 11.3 0.00 0.00 0.00 53 1014.4
20260508043621 12 119 6.4 14.5 0.00 0.00 0.00 53 1014.4
20260508042614 12 71 8.0 11.3 0.00 0.00 0.00 54 1014.4
20260508041641 12 71 3.2 4.8 0.00 0.00 0.00 54 1014.2
20260508040627 13 96 0.0 8.0 0.00 0.00 0.00 52 1014.1
20260508035631 13 80 4.8 12.9 0.00 0.00 0.00 48 1013.9
20260508034622 13 82 6.4 12.9 0.00 0.00 0.00 47 1013.8
20260508033630 13 88 8.0 11.3 0.00 0.00 0.00 47 1013.7
20260508032617 13 79 6.4 9.7 0.00 0.00 0.00 50 1013.7
20260508031626 13 92 6.4 9.7 0.00 0.00 0.00 50 1013.6
20260508030618 13 82 4.8 9.7 0.00 0.00 0.00 52 1013.4
20260508025621 14 71 3.2 6.4 0.00 0.00 0.00 48 1013.2
20260508024630 15 71 3.2 6.4 0.00 0.00 0.00 49 1013.2
20260508023618 15 11 0.0 0.0 0.00 0.00 0.00 47 1013.1
20260508022632 16 331 0.0 0.0 0.00 0.00 0.00 45 1013.0
20260508021620 18 320 0.0 4.8 0.00 0.00 0.00 37 1013.1
20260508020629 18 288 0.0 0.0 0.00 0.00 0.00 37 1013.0
20260508015616 19 288 1.6 12.9 0.00 0.00 0.00 36 1012.9
20260508014625 20 263 4.8 14.5 0.00 0.00 0.00 34 1012.9
20260508013614 20 316 3.2 6.4 0.00 0.00 0.00 34 1013.0
20260508012625 20 258 4.8 14.5 0.00 0.00 0.00 33 1013.0
20260508011617 20 275 12.9 17.7 0.00 0.00 0.00 32 1012.9
20260508010644 20 273 11.3 17.7 0.00 0.00 0.00 32 1012.9
20260508005626 21 255 11.3 17.7 0.00 0.00 0.00 30 1012.9
20260508004615 21 266 8.0 16.1 0.00 0.00 0.00 31 1012.9
20260508003646 21 281 8.0 12.9 0.00 0.00 0.00 30 1012.8
20260508002618 21 292 8.0 17.7 0.00 0.00 0.00 30 1012.8
20260508001629 21 262 4.8 14.5 0.00 0.00 0.00 32 1012.8
20260508000615 21 271 4.8 16.1 0.00 0.00 0.00 30 1012.9
20260507235617 20 229 4.8 11.3 0.00 0.00 0.00 32 1013.1
20260507234649 20 198 3.2 8.0 0.00 0.00 0.00 32 1013.4
20260507233616 20 250 4.8 11.3 0.00 0.00 0.00 30 1013.7
20260507232625 20 160 6.4 11.3 0.00 0.00 0.00 33 1013.9
20260507231633 20 164 0.0 9.7 0.00 0.00 0.00 30 1013.9
20260507230623 19 205 1.6 8.0 0.00 0.00 0.00 33 1014.0
20260507225624 18 301 0.0 0.0 0.00 0.00 0.00 34 1014.2
20260507224615 18 300 0.0 0.0 0.00 0.00 0.00 36 1014.4
20260507223626 18 300 0.0 4.8 0.00 0.00 0.00 35 1014.5
20260507222619 18 302 0.0 6.4 0.00 0.00 0.00 35 1014.7
20260507221630 18 291 3.2 9.7 0.00 0.00 0.00 33 1014.7
20260507220618 18 311 4.8 11.3 0.00 0.00 0.00 34 1014.9
20260507215624 18 298 8.0 12.9 0.00 0.00 0.00 34 1015.0
20260507214614 18 277 11.3 20.9 0.00 0.00 0.00 32 1015.1
20260507213623 18 260 14.5 19.3 0.00 0.00 0.00 33 1015.1
20260507212632 19 271 11.3 24.1 0.00 0.00 0.00 32 1015.3
20260507211625 19 246 17.7 24.1 0.00 0.00 0.00 31 1015.4
20260507210654 20 279 16.1 24.1 0.00 0.00 0.00 33 1015.4
20260507205616 20 257 19.3 29.0 0.00 0.00 0.00 30 1015.3
20260507204626 20 292 19.3 25.7 0.00 0.00 0.00 32 1015.4
20260507203621 20 282 16.1 25.7 0.00 0.00 0.00 30 1015.6
20260507202628 20 265 12.9 33.8 0.00 0.00 0.00 29 1015.6
20260507201618 20 286 16.1 25.7 0.00 0.00 0.00 31 1015.6
20260507200628 19 275 12.9 24.1 0.00 0.00 0.00 33 1015.8
20260507195650 19 299 17.7 29.0 0.00 0.00 0.00 30 1016.0
20260507194624 19 286 17.7 27.4 0.00 0.00 0.00 32 1016.0
20260507193629 18 276 16.1 25.7 0.00 0.00 0.00 34 1016.2
20260507192617 18 287 19.3 27.4 0.00 0.00 0.00 30 1016.2
20260507191626 19 279 20.9 29.0 0.00 0.00 0.00 30 1016.2
20260507190617 18 271 17.7 29.0 0.00 0.00 0.00 34 1016.3
20260507185616 18 281 22.5 32.2 0.00 0.00 0.00 29 1016.2
20260507184646 18 286 22.5 33.8 0.00 0.00 0.00 30 1016.2
20260507183615 17 304 9.7 25.7 0.00 0.00 0.00 31 1016.3
20260507182627 18 272 16.1 22.5 0.00 0.00 0.00 33 1016.3
20260507181654 18 275 17.7 24.1 0.00 0.00 0.00 31 1016.4
20260507180651 18 290 12.9 20.9 0.00 0.00 0.00 36 1016.4
20260507175633 17 263 6.4 16.1 0.00 0.00 0.00 34 1016.6
20260507174641 17 255 6.4 14.5 0.00 0.00 0.00 36 1016.8
20260507173629 16 280 1.6 6.4 0.00 0.00 0.00 39 1016.8
20260507172624 16 257 1.6 9.7 0.00 0.00 0.00 40 1016.8